RH
100 101 103 103 100 96 95 96 92 83 75 73 76 82 73 63 74 83 73 60 45 32 31 36 43 47 48 48 48 47 46 45 45 44 40 34 27 19 15 13 14 13 12 11 12 13 13 13 12 11 10 10 10 11 12 13 15 16 18 21 25 29 33 36 38 40 43 46 48 47 46 44 42 42
100 100 100 102 101 98 97 101 102 97 90 83 83 89 83 69 78 93 91 82 69 53 41 36 39 46 49 49 49 49 48 47 46 45 45 45 42 36 28 22 18 16 14 13 12 13 14 16 16 14 14 12 11 11 10 11 12 14 16 17 19 22 25 28 30 32 34 36 38 39 39 40 39 39
101 102 101 100 100 100 99 101 102 101 100 97 92 93 92 83 78 87 96 94 85 72 60 49 43 43 47 49 49 50 50 50 48 47 48 49 49 46 41 37 31 26 22 18 16 14 14 15 16 17 17 16 15 13 12 12 12 13 15 16 16 17 18 20 21 22 23 24 25 26 28 29 30 30
87 94 98 100 100 101 100 100 101 102 102 103 97 85 80 80 79 80 86 92 93 86 77 67 59 51 49 49 50 51 52 52 52 51 51 54 53 50 47 45 44 41 36 31 25 20 16 15 16 17 17 18 19 19 17 16 15 15 15 15 15 16 16 17 18 19 19 18 17 17 18 19 19 19
48 58 70 80 87 92 98 101 101 101 101 102 101 90 73 64 67 70 72 77 87 95 93 85 77 69 64 60 57 57 58 59 59 58 58 59 59 56 51 48 48 47 46 44 40 34 26 20 17 17 18 18 20 23 25 24 22 20 19 18 17 17 17 17 18 19 18 18 17 16 15 14 13 13
17 21 29 39 50 62 78 95 101 101 103 102 101 101 94 79 68 68 70 69 70 79 89 93 92 88 83 80 76 73 71 72 72 71 69 67 63 59 54 50 47 47 47 48 47 45 40 33 26 22 21 20 20 23 29 33 34 31 27 24 22 21 19 19 19 19 20 20 19 18 16 13 12 12
21 15 15 17 24 32 49 79 99 101 101 103 100 99 103 100 90 82 82 81 73 69 72 81 90 94 92 92 93 92 89 86 85 85 82 77 70 63 57 53 49 47 46 46 47 48 47 43 38 32 27 26 25 27 33 41 45 44 39 34 30 27 25 23 22 22 22 22 22 21 18 15 13 13
45 33 25 23 28 35 42 67 95 103 99 101 101 99 100 103 102 98 96 95 92 86 78 74 79 87 91 92 93 94 92 90 89 89 90 88 83 74 67 61 57 54 49 46 45 47 48 47 45 42 37 33 32 34 40 47 53 55 51 45 39 36 34 31 30 29 28 28 27 24 21 18 16 15
68 58 45 38 45 55 58 66 87 100 101 100 100 100 100 100 101 102 101 99 99 100 96 87 79 78 83 88 90 89 87 84 81 80 83 86 87 85 81 75 68 63 57 52 47 45 46 47 47 47 45 41 39 41 46 50 55 58 58 54 49 46 44 41 39 38 38 38 36 32 27 24 22 21
85 78 66 55 53 62 69 74 83 93 100 102 101 100 100 100 101 102 101 100 100 100 101 98 90 81 78 82 85 85 84 82 78 74 75 78 82 85 86 85 81 75 67 60 54 49 46 45 45 47 48 47 45 46 50 53 56 59 61 60 59 56 54 52 50 49 49 48 45 41 37 32 29 27
100 96 89 78 68 62 62 67 74 84 92 99 102 103 101 100 101 101 101 101 100 100 100 100 97 93 89 87 85 83 82 80 77 73 69 69 72 77 84 91 95 90 80 70 63 58 53 49 47 48 50 51 50 49 49 51 54 55 57 60 62 63 63 62 61 59 57 55 53 50 46 43 39 35
101 100 99 97 93 86 78 73 70 70 75 82 89 93 96 98 99 101 102 102 101 101 101 100 99 98 98 98 95 90 85 80 77 74 71 68 70 79 92 101 105 101 92 81 73 68 63 59 57 56 55 54 53 52 50 49 48 47 47 52 60 66 69 71 70 69 67 64 62 59 56 54 51 48
104 102 101 101 101 100 98 95 90 83 78 77 77 78 81 83 85 88 92 95 98 99 100 101 101 101 102 102 100 96 91 85 82 83 84 84 84 89 96 100 101 101 97 91 83 77 73 70 69 68 66 62 59 57 55 53 51 50 48 51 57 64 68 70 71 72 72 71 69 66 64 61 58 55
83 91 97 100 102 103 103 103 103 100 96 92 91 88 85 81 79 77 76 77 80 84 88 91 92 95 97 97 97 99 98 95 91 88 89 94 98 100 97 91 89 93 96 95 88 82 81 81 80 78 77 75 72 66 62 60 58 56 54 53 55 57 59 62 66 70 72 72 70 67 62 58 54 51
43 51 59 68 76 84 90 94 98 100 101 103 105 104 100 95 91 86 79 72 67 66 68 71 74 77 80 81 84 90 97 103 100 92 90 96 102 104 100 93 91 92 93 91 86 82 82 83 83 86 88 86 83 77 71 68 65 61 61 62 64 67 70 73 76 77 77 73 69 64 59 54 50 47
41 39 38 39 41 44 50 58 65 71 76 81 88 93 96 96 95 94 89 82 73 65 59 56 55 56 58 60 62 66 78 94 103 101 97 100 104 104 99 95 96 94 88 85 81 76 71 66 67 80 93 95 91 86 80 74 71 69 71 74 79 81 80 79 77 73 69 65 61 58 54 51 48 45
59 52 48 46 43 41 41 43 46 50 51 51 55 61 69 76 81 84 84 81 77 72 67 59 52 47 44 43 43 44 52 70 90 103 104 103 104 103 97 95 97 90 81 79 76 67 59 52 52 71 94 101 97 91 85 80 76 75 76 78 78 77 73 70 68 65 62 59 57 54 51 48 46 44
80 71 64 59 54 52 52 54 59 62 59 52 45 44 52 63 72 76 77 76 74 71 68 64 59 55 50 43 39 38 38 47 67 90 103 104 103 102 100 100 97 88 80 79 75 67 61 54 56 76 97 104 99 93 88 84 82 80 79 79 78 78 78 76 74 71 67 62 57 51 46 42 38 35
91 90 85 75 66 63 62 65 72 77 74 65 54 47 50 63 75 82 81 78 77 74 70 66 63 59 56 51 45 41 37 36 45 65 86 99 102 101 102 102 97 91 88 83 76 73 71 66 72 90 102 103 101 97 92 90 88 88 88 90 90 88 84 78 71 65 59 52 46 39 34 30 27 24
89 96 98 92 82 71 67 73 84 92 92 87 78 69 64 65 68 72 76 77 77 77 75 72 67 62 57 52 48 44 40 37 35 42 58 77 93 101 103 101 99 99 99 91 79 77 81 79 84 96 101 101 102 102 98 95 94 95 96 95 91 82 72 63 54 47 41 35 31 28 26 24 23 21
90 95 100 103 97 78 66 76 92 99 100 99 98 95 90 83 73 66 65 68 69 73 79 80 75 68 60 53 48 45 42 40 38 35 38 49 69 90 102 102 99 100 103 100 89 85 92 96 95 97 101 102 103 103 102 100 99 100 96 86 76 67 57 48 40 34 31 28 27 26 25 23 22 21
94 99 102 106 104 82 65 76 95 103 103 101 100 100 99 98 94 83 73 73 79 86 91 90 81 71 62 54 49 46 43 40 39 38 37 37 47 73 96 101 99 100 101 102 99 93 95 101 101 99 101 104 103 102 102 103 103 98 85 71 61 54 46 40 36 33 31 30 28 26 25 24 25 27
97 100 103 107 107 86 62 67 90 101 97 91 92 97 101 102 101 94 89 92 99 100 97 91 80 67 59 53 50 46 43 43 43 42 42 39 47 77 100 101 98 101 99 100 103 100 97 102 102 99 101 103 102 101 102 105 102 89 71 60 55 50 45 41 40 38 34 30 27 27 29 32 36 40
97 95 100 108 107 86 61 65 91 101 93 89 94 103 107 102 92 90 98 106 105 99 94 87 76 67 64 64 61 53 47 47 51 54 53 49 58 86 103 100 97 101 101 101 101 98 100 103 100 100 103 96 89 96 103 101 91 74 60 56 54 51 50 47 43 38 34 33 35 38 43 47 49 50
100 96 102 107 102 88 73 80 99 101 93 98 105 104 102 94 83 85 100 106 97 87 81 77 78 82 86 87 81 65 49 48 57 68 74 73 76 88 98 99 100 101 101 100 97 95 99 101 99 104 102 81 72 87 97 91 81 70 63 62 61 57 54 51 47 46 47 50 54 55 57 57 55 52
105 103 105 106 103 96 86 86 93 91 88 100 106 95 83 79 76 78 85 86 80 75 75 82 93 100 99 99 92 74 61 67 80 88 90 91 92 95 99 101 101 101 100 100 98 97 98 98 102 103 89 66 62 73 75 72 73 73 70 68 64 58 54 54 58 65 67 67 67 65 62 59 51 43
104 101 97 97 95 86 76 77 82 81 87 102 103 87 75 76 82 85 85 85 86 87 91 98 104 106 103 101 97 86 82 91 101 100 97 97 99 101 102 101 101 101 100 100 101 100 98 101 105 94 68 51 49 52 54 58 63 67 70 71 65 59 59 64 71 77 76 73 69 63 55 45 33 24
79 73 66 68 70 64 64 73 77 78 92 107 104 90 86 91 96 98 97 98 98 98 100 101 102 104 104 100 97 95 97 100 101 99 99 100 100 101 101 101 101 101 100 100 101 100 98 102 104 87 63 51 50 52 56 59 62 69 77 79 76 73 74 77 79 78 74 67 58 46 33 22 16 13
51 46 44 49 55 59 66 77 82 87 98 100 93 91 98 102 101 101 100 100 100 100 102 102 101 101 101 100 100 101 101 100 100 100 100 100 100 101 102 103 102 100 98 97 97 98 99 101 100 88 73 63 61 64 65 67 77 87 85 81 83 84 82 80 77 71 61 47 33 22 15 12 11 13
58 56 57 61 66 75 84 91 98 100 93 80 78 92 104 104 102 101 100 100 101 101 100 100 101 102 101 99 98 99 101 102 100 100 100 99 100 102 102 104 103 98 94 88 84 86 91 92 87 81 76 72 73 78 79 81 90 96 88 79 80 81 79 74 63 50 36 23 15 12 11 11 13 16
84 82 83 86 89 94 97 98 99 98 89 84 91 102 105 102 100 101 100 100 100 100 98 98 99 99 95 89 87 92 100 102 100 100 100 100 100 100 100 102 101 98 94 87 80 79 82 83 81 81 84 87 89 92 92 88 88 89 83 78 77 76 70 58 40 26 18 13 12 13 12 14 19 20
97 95 95 97 98 99 98 96 96 97 97 99 102 102 101 101 101 100 100 100 100 100 100 100 99 97 95 94 94 97 100 100 99 100 100 99 100 100 100 100 100 100 100 97 94 92 92 93 94 95 97 100 100 99 95 88 83 80 77 76 74 67 52 34 20 15 14 13 13 14 16 21 24 23
102 100 99 100 100 100 100 100 101 102 101 101 100 100 101 101 100 100 101 101 100 100 100 100 100 100 100 100 100 100 100 100 100 100 100 100 100 100 100 100 100 100 101 101 101 102 101 101 102 101 100 101 99 95 89 84 81 78 74 71 62 46 29 19 15 14 14 15 16 16 19 24 25 24
101 101 101 102 101 101 102 102 103 102 102 102 102 103 103 102 101 101 101 101 100 100 100 100 100 100 100 100 100 100 100 101 100 100 100 100 100 100 100 100 100 100 100 100 100 100 101 101 100 99 98 95 92 89 86 83 83 80 71 57 41 27 20 18 16 15 16 17 16 15 17 22 25 26
101 102 102 102 101 101 100 101 101 100 101 102 103 102 102 101 100 99 99 100 100 100 100 101 101 101 101 100 100 100 100 100 100 100 100 100 100 100 100 100 100 100 100 100 100 98 97 96 94 94 95 92 91 92 89 82 77 69 58 43 29 21 19 17 15 15 17 18 18 17 18 21 23 27
100 100 100 100 100 100 100 100 100 100 100 100 101 101 101 101 101 102 102 103 102 101 102 103 103 103 103 101 101 101 101 100 100 100 100 100 100 100 100 100 100 100 100 100 101 100 100 99 97 96 95 93 93 95 93 85 72 56 42 35 29 23 18 16 16 17 16 19 23 25 26 27 24 26
100 100 101 100 100 100 100 99 100 100 100 101 103 105 105 104 104 104 104 104 103 103 104 103 101 103 105 105 104 104 102 101 100 100 100 100 100 100 100 100 100 100 100 101 102 103 104 103 99 96 95 95 95 96 98 97 90 70 45 29 26 26 22 17 17 18 19 21 24 26 31 34 31 29
100 99 100 99 100 101 100 101 101 101 101 102 103 103 103 102 102 101 100 101 102 102 103 103 103 105 106 105 103 102 101 100 100 100 100 100 99 100 100 100 100 100 101 102 105 105 104 102 99 97 96 96 97 96 96 99 104 100 78 48 30 27 26 21 18 19 21 24 25 26 33 40 40 39
100 100 101 101 102 102 101 102 103 101 101 102 101 100 100 100 100 100 100 100 100 101 102 104 103 103 102 101 100 100 100 100 100 101 101 101 101 101 101 100 100 100 100 102 104 104 102 100 100 99 97 95 93 90 87 87 94 103 101 84 60 42 33 28 24 20 22 27 27 25 33 43 47 51
100 100 100 100 100 98 95 95 96 96 97 99 100 100 100 100 99 100 101 101 100 100 101 102 101 100 100 100 100 100 100 100 101 102 102 101 101 100 100 100 100 100 101 102 103 104 102 99 96 94 92 90 86 80 76 74 76 81 89 93 86 69 53 43 35 26 24 29 27 23 29 39 44 57
100 98 96 95 96 95 94 94 95 96 98 100 100 100 100 99 99 98 97 96 95 95 97 98 99 100 101 102 102 102 101 101 101 100 100 101 101 101 101 101 101 101 100 101 102 101 100 97 94 92 90 87 82 74 68 64 61 62 69 78 84 80 69 58 50 39 31 30 29 23 25 33 38 50
99 97 96 95 96 96 96 95 95 96 98 99 100 100 100 100 99 97 96 95 94 94 96 97 98 100 101 102 103 103 102 102 102 102 102 103 103 103 102 102 102 102 101 101 101 101 101 99 96 92 88 83 74 65 59 56 53 53 58 66 73 79 78 71 65 56 45 40 36 26 21 27 34 45
100 100 99 99 97 95 95 93 93 95 96 96 97 97 97 97 97 96 97 99 99 100 102 102 103 105 106 107 108 107 105 105 104 104 104 104 104 104 104 103 103 101 99 97 97 97 96 93 87 80 76 72 65 56 51 51 48 45 46 49 53 60 66 67 68 68 63 60 54 40 28 25 27 37
103 102 103 102 99 96 94 92 91 91 92 93 94 95 96 97 97 97 99 102 103 105 106 106 105 105 104 103 102 99 97 98 99 101 102 101 99 97 94 90 88 85 82 80 80 80 79 74 68 62 57 55 51 44 38 38 37 34 33 33 33 35 38 41 46 53 61 71 74 62 46 35 28 32
99 100 101 101 101 100 99 97 97 97 97 96 93 89 86 84 82 83 85 85 85 86 85 83 82 82 80 78 78 78 79 82 83 82 80 77 74 72 68 66 65 65 62 57 54 53 52 49 46 43 40 39 38 36 33 33 34 33 32 32 31 30 29 28 29 30 36 55 76 81 68 50 35 33
Wind_Speed
92 92 93 95 96 95 94 94 94 95 94 92 90 87 84 83 83 83 83 82 80 79 79 79 78 78 77 77 76 75 74 73 72 72 71 71 71 71 70 68 67 66 66 66 65 65 64 64 64 64 64 64 64 64 65 65 66 66 67 67 68 68 68 67 67 66 65 64 64 64 64 65 65 65
91 92 92 94 96 96 95 94 93 93 94 93 91 88 84 82 81 82 82 82 81 81 81 81 80 80 79 78 77 77 76 75 74 73 72 72 72 72 72 71 69 68 67 66 66 66 65 65 64 64 64 64 64 64 64 64 64 64 65 65 66 66 66 66 66 66 66 66 66 66 66 67 67 67
93 93 92 92 93 93 93 92 92 91 92 92 91 88 85 83 82 82 83 83 82 82 83 82 82 82 81 80 79 78 78 77 76 75 73 73 73 73 72 72 71 70 69 68 67 67 67 66 66 65 65 65 65 65 65 64 64 64 64 64 64 64 65 65 65 65 66 66 67 67 68 68 69 70
97 97 98 97 96 95 94 93 92 91 91 91 92 92 91 89 87 85 86 85 84 84 84 83 83 83 82 82 81 80 79 78 78 76 75 75 74 73 72 71 71 71 70 70 69 68 68 68 67 67 66 66 66 67 66 66 66 66 66 65 65 65 64 64 64 65 65 65 66 66 67 68 69 70
95 98 100 102 102 100 99 97 95 93 92 91 91 93 95 95 93 90 88 88 87 87 87 85 84 84 84 83 82 81 80 79 78 77 77 76 76 74 73 71 70 70 70 70 70 70 70 69 69 69 68 68 68 68 68 68 68 68 68 67 67 66 66 66 66 66 66 66 66 66 67 67 68 69
81 87 92 96 99 100 100 99 97 96 95 93 92 91 92 94 95 93 90 89 89 91 91 88 86 86 85 84 83 82 81 80 79 78 78 78 77 76 75 74 72 71 70 70 71 71 70 70 70 70 70 70 70 69 69 69 69 69 69 69 69 69 69 69 69 69 69 68 68 68 68 68 68 69
63 69 76 81 86 91 95 97 97 97 96 95 94 93 91 91 91 92 91 90 89 90 92 91 89 87 85 84 83 82 82 81 80 79 79 79 79 78 78 77 76 75 73 72 71 71 71 71 70 70 70 71 70 70 70 70 70 70 71 71 71 71 71 71 71 71 71 70 70 70 70 70 70 71
57 59 63 67 72 78 85 91 95 96 96 96 96 94 93 91 91 90 91 91 91 90 92 92 91 90 88 86 85 84 83 82 81 80 80 80 79 79 79 78 78 77 75 74 73 72 71 71 71 70 70 70 71 71 71 70 70 71 71 72 72 73 73 73 73 73 73 72 72 72 72 72 73 74
59 58 59 61 65 70 76 82 88 91 92 93 94 94 94 93 91 91 90 90 92 93 93 92 91 91 90 88 87 86 85 84 82 81 80 80 80 79 79 79 78 78 77 75 74 74 73 72 71 71 71 71 71 71 71 71 71 71 71 71 72 73 74 74 74 74 74 74 74 74 75 75 76 77
60 60 59 59 61 66 70 74 79 83 86 88 90 91 92 92 92 92 90 89 89 91 93 93 92 91 89 88 87 86 85 84 82 81 80 80 80 80 79 79 78 79 78 77 76 75 75 74 72 71 71 71 71 72 72 72 72 72 72 73 73 73 74 74 74 75 75 75 76 76 77 78 79 79
62 62 61 60 60 62 65 67 70 74 77 81 84 86 88 90 91 92 92 92 91 90 90 92 92 90 88 87 86 85 84 83 82 81 80 79 80 80 80 80 80 80 79 78 77 76 76 75 74 72 71 71 72 72 73 73 73 73 74 74 75 75 75 75 75 76 76 77 78 79 80 80 81 82
62 62 62 61 61 61 62 63 65 67 69 72 76 80 83 86 88 89 91 93 94 93 92 91 90 89 87 85 85 85 85 84 81 79 79 79 79 80 81 81 81 80 79 77 77 76 76 74 73 72 71 72 72 73 73 73 73 73 74 75 75 76 76 77 77 78 78 79 79 80 81 82 83 84
60 61 61 61 61 62 62 63 64 66 67 68 70 73 76 80 82 85 87 90 92 94 95 94 93 91 90 89 89 89 87 85 82 80 79 79 79 80 82 82 81 80 78 76 75 75 75 73 71 70 70 71 72 73 73 73 72 73 73 74 75 76 77 78 78 79 79 80 81 81 82 83 84 85
57 58 59 60 60 61 62 63 64 65 66 67 69 70 72 74 76 79 82 86 88 91 93 95 95 95 94 93 93 92 89 87 85 83 82 81 80 81 81 81 81 80 78 77 75 74 73 72 70 69 69 69 70 71 72 72 72 72 72 74 75 76 77 78 78 78 79 79 80 81 82 82 83 84
42 47 51 54 57 58 60 61 62 64 66 67 68 69 70 72 73 74 76 79 83 86 90 92 95 96 95 95 94 93 92 90 88 86 84 84 83 82 81 80 79 79 78 78 76 74 71 70 68 68 68 69 69 69 69 70 70 71 72 73 74 75 75 76 76 77 78 79 80 81 81 82 83 84
27 30 34 39 43 47 50 53 56 59 63 65 67 68 69 70 71 72 73 74 76 79 82 86 90 93 94 94 94 94 94 93 92 89 87 86 86 84 82 80 79 78 77 75 74 71 68 67 66 67 69 69 69 69 68 69 69 70 72 72 73 74 75 75 76 77 78 80 81 82 83 84 85 86
28 27 27 29 30 32 36 40 44 48 52 56 60 64 66 68 68 69 70 71 72 73 76 79 82 84 85 87 90 91 93 94 95 94 91 89 87 85 82 80 80 80 77 73 72 70 68 67 66 67 70 71 70 69 69 69 70 71 72 73 73 74 75 75 76 77 79 80 82 83 85 86 87 88
32 31 30 29 28 29 31 33 36 39 42 45 50 55 60 62 63 64 66 67 68 69 71 73 74 75 76 77 80 83 87 90 93 94 94 93 90 87 84 81 80 80 79 76 74 71 70 70 68 68 70 71 71 70 70 70 71 71 72 73 73 74 74 75 77 78 80 81 83 84 85 86 87 89
35 34 33 31 29 30 30 29 31 34 35 35 38 44 50 54 56 58 60 62 63 65 66 68 69 71 72 73 73 74 77 80 84 88 91 93 92 89 87 84 82 81 81 81 78 73 71 72 71 70 72 72 71 71 71 71 72 72 72 73 73 74 75 76 78 80 81 83 84 85 86 86 87 88
38 37 36 33 30 30 29 28 28 29 29 28 29 32 38 43 48 51 53 56 58 60 61 63 65 66 68 69 70 70 70 71 74 77 82 87 89 88 86 84 83 83 83 82 80 75 74 74 73 72 72 72 71 71 72 73 73 73 73 73 74 75 76 78 79 81 82 84 85 85 86 87 88 89
39 37 37 35 32 30 29 28 27 26 27 29 28 28 31 35 39 43 47 50 53 54 55 56 58 60 62 63 64 65 65 66 67 69 71 76 82 84 83 81 80 82 83 84 82 78 76 76 75 73 73 72 70 71 72 73 73 73 73 73 74 75 77 78 80 81 82 83 85 86 87 88 89 91
38 37 37 36 33 32 30 28 27 28 29 30 30 31 32 33 34 37 42 45 47 47 47 49 51 54 55 56 58 60 61 61 61 62 64 67 72 77 78 76 75 76 78 81 82 80 77 77 76 74 73 71 70 71 72 72 72 72 72 71 73 74 76 78 79 81 83 84 85 86 87 88 89 90
33 35 35 34 32 31 29 27 27 29 30 29 30 32 34 34 34 35 38 41 43 43 43 44 46 48 49 50 52 54 56 56 55 57 59 62 65 69 71 71 71 71 72 74 77 77 77 77 76 74 72 70 69 70 72 72 71 72 71 71 72 74 76 78 80 82 83 85 86 86 87 87 88 88
29 30 30 31 30 28 26 25 27 28 28 27 29 30 31 32 32 33 36 39 41 41 41 42 43 43 43 44 46 48 50 50 51 52 53 56 59 62 64 64 64 65 67 69 72 73 74 74 74 72 70 68 67 69 70 71 72 73 73 73 73 75 77 79 81 83 85 86 87 87 86 87 87 87
26 27 27 28 27 25 24 24 25 26 26 25 26 27 28 29 30 30 34 38 40 41 40 40 40 40 40 40 41 42 44 45 46 47 48 50 54 58 60 59 57 58 62 66 69 70 70 70 70 68 67 66 67 68 68 70 72 73 73 73 74 76 78 80 82 84 86 86 86 86 86 86 87 88
21 23 24 24 24 23 23 23 23 24 23 21 22 24 25 26 26 27 31 34 35 35 34 34 36 36 36 36 37 37 39 40 41 42 43 46 49 52 54 53 53 55 58 61 64 64 64 65 65 65 65 66 67 68 68 68 70 72 73 75 77 78 80 81 82 83 84 85 85 85 85 85 86 87
18 21 24 25 24 23 21 19 19 19 15 14 17 19 19 19 20 22 24 26 27 27 27 29 31 32 32 32 31 31 33 36 38 39 39 42 45 49 51 52 52 54 56 57 59 59 59 60 62 63 65 66 68 69 69 69 72 74 75 77 79 80 80 81 81 81 82 83 84 84 84 84 84 84
16 20 22 22 21 19 17 16 16 14 11 12 17 17 16 16 18 20 21 23 24 25 26 26 27 28 27 27 26 27 31 34 37 38 38 39 41 45 49 52 53 55 56 56 58 59 58 57 58 61 65 67 69 70 71 72 73 75 75 75 76 77 78 78 79 80 81 82 83 83 82 80 78 77
9 11 13 15 15 15 15 15 13 12 12 15 17 16 17 19 21 22 23 23 24 23 23 22 23 24 25 25 25 25 28 30 33 36 38 39 40 41 43 46 48 51 53 55 57 58 58 57 58 61 65 68 70 71 72 72 72 72 73 74 72 72 73 75 77 78 79 80 80 79 77 75 73 71
11 10 11 12 12 12 12 11 10 12 15 17 16 17 19 20 20 19 20 19 19 18 19 21 22 23 24 24 23 23 24 26 30 33 36 38 40 41 41 42 44 46 48 51 54 56 57 58 60 62 65 67 69 70 70 70 69 68 71 73 72 70 71 73 75 76 76 76 75 73 71 69 68 66
9 9 9 9 9 9 10 10 11 13 16 16 16 17 18 16 15 15 15 15 15 16 18 20 22 23 23 24 24 25 25 26 29 32 34 36 38 39 40 41 42 44 46 49 51 54 56 58 60 62 63 65 65 66 67 67 67 68 70 71 71 71 71 71 72 72 71 70 68 67 66 64 62 61
6 5 5 5 6 7 7 8 9 10 11 12 13 13 13 13 14 14 13 14 14 15 17 19 21 22 23 24 24 26 27 28 29 31 32 34 35 36 37 38 40 42 44 46 48 51 53 55 57 58 59 60 61 63 64 65 67 67 68 69 69 70 70 69 67 66 65 64 62 61 60 59 57 56
5 4 3 2 1 2 3 3 5 6 7 9 10 10 11 12 12 11 11 11 12 13 15 16 18 19 21 22 24 25 26 27 28 28 29 30 31 32 34 35 37 39 41 42 44 46 48 50 52 53 55 57 59 61 63 63 64 65 67 68 68 67 65 63 62 61 60 60 59 57 56 55 53 53
3 2 2 1 1 2 2 3 4 5 6 7 7 7 8 8 8 9 8 8 9 10 11 13 15 17 18 19 20 21 22 23 24 24 25 26 28 29 31 32 34 36 38 40 42 44 46 48 50 53 55 56 58 60 61 62 62 64 66 67 66 64 61 58 57 56 56 57 57 57 55 52 49 50
2 2 3 4 4 4 4 4 5 6 6 6 6 7 7 7 8 8 8 8 9 9 10 11 12 13 14 15 16 17 18 19 20 22 23 25 26 28 30 31 33 35 38 40 42 45 47 49 51 53 55 56 56 58 60 62 63 64 65 64 63 60 57 55 54 53 53 54 55 55 55 51 47 48
2 2 3 3 3 3 3 4 5 5 6 6 6 7 7 7 8 8 8 9 9 9 9 10 10 11 12 13 15 16 18 19 21 22 24 25 27 29 31 33 35 37 40 42 44 46 48 50 52 53 54 55 55 56 59 62 64 65 64 62 60 58 57 55 53 52 52 52 52 53 53 51 47 46
1 1 1 1 1 2 3 3 4 4 4 4 5 5 5 6 6 7 7 7 8 8 9 10 11 13 14 15 17 18 20 21 23 24 26 28 30 32 33 36 37 40 42 44 45 47 49 50 52 53 53 54 55 55 56 58 61 65 65 62 59 58 57 55 54 52 52 51 51 50 50 49 48 47
1 1 1 2 3 3 4 4 4 5 4 4 4 4 4 4 5 5 6 7 8 10 11 13 14 15 17 18 19 20 22 23 25 27 28 30 32 34 36 38 40 41 43 45 47 48 50 51 52 53 54 55 55 56 55 54 56 60 64 63 60 58 57 57 55 53 52 51 51 49 48 46 47 47
4 4 4 4 5 5 6 6 6 5 5 4 3 2 2 3 4 5 7 8 10 11 13 14 16 17 18 19 20 21 23 25 27 29 31 33 34 36 38 40 41 43 45 46 48 50 51 52 53 54 55 56 56 57 57 55 54 55 59 62 61 58 57 57 56 54 53 53 51 48 46 44 44 46
4 5 5 5 5 4 5 5 5 4 4 3 2 1 2 4 5 6 7 9 10 12 13 14 16 17 18 20 22 23 26 28 29 31 33 35 36 38 39 41 42 43 45 47 49 50 52 53 54 55 56 57 58 58 58 57 55 54 56 59 61 60 58 57 56 55 53 54 53 49 44 42 41 43
4 4 4 4 4 3 2 2 2 1 1 0 1 2 4 5 6 8 9 10 12 13 14 16 17 19 21 23 25 27 28 30 32 33 35 36 37 38 40 41 43 44 45 47 48 50 52 54 55 57 58 59 59 60 59 58 57 56 57 58 60 61 60 59 57 56 54 54 53 49 44 40 39 39
6 5 5 4 4 3 2 2 2 2 2 2 3 4 6 7 8 10 11 12 14 15 17 18 19 21 23 25 27 28 30 31 33 34 36 37 38 39 40 42 43 44 45 47 48 50 53 55 56 58 59 60 61 61 60 60 59 58 58 58 59 60 61 61 60 58 56 56 55 51 44 39 36 36
5 5 4 4 4 4 4 4 3 3 4 4 5 6 7 8 10 11 12 13 15 17 18 20 21 23 25 26 28 30 31 32 34 35 36 37 38 39 41 43 44 46 47 48 49 51 53 55 57 58 59 60 62 62 62 62 62 62 61 61 61 61 61 61 60 60 58 57 57 54 47 40 35 33
4 4 5 5 6 6 6 6 6 6 6 7 7 8 9 10 11 12 13 15 16 18 19 21 23 25 26 28 29 31 32 34 35 36 37 38 40 41 43 44 46 47 48 49 50 52 54 55 57 58 59 60 62 63 63 62 63 62 62 62 62 62 61 60 60 59 58 58 58 55 50 44 37 32
6 7 7 7 7 8 8 8 8 8 8 9 9 10 10 11 12 13 14 16 17 19 21 23 24 26 28 29 31 32 33 34 36 37 38 40 41 42 44 45 46 47 49 50 51 52 53 54 56 56 57 57 59 59 59 59 59 59 59 59 60 59 58 57 57 56 55 56 57 55 50 47 41 33
Wind_Direction
246 245 245 247 248 249 251 252 253 254 254 254 254 254 255 255 255 254 253 251 250 249 249 249 250 251 252 253 253 254 254 254 253 253 253 253 252 251 251 251 252 252 252 251 251 251 251 251 251 252 252 252 253 253 253 253 253 254 254 254 254 254 254 255 255 255 255 254 254 254 254 254 253 253
242 241 242 244 246 247 249 251 253 253 253 252 252 251 251 252 253 254 254 252 251 250 249 249 249 249 250 251 252 253 253 254 254 253 254 254 254 253 252 251 251 252 252 252 252 252 251 251 251 252 252 253 253 253 253 253 253 253 254 254 254 254 254 254 254 254 254 254 254 254 254 254 253 253
242 241 241 243 245 246 248 250 251 252 253 252 250 249 250 251 252 253 254 253 252 251 250 249 248 248 249 249 250 251 252 253 254 254 253 254 254 253 253 252 252 252 252 253 253 253 252 252 252 252 253 253 253 253 253 253 253 254 254 254 254 254 254 254 254 254 254 254 254 254 253 253 253 253
246 245 246 247 247 248 249 250 250 251 252 253 253 253 252 252 253 253 253 253 252 251 250 249 249 248 248 249 249 249 250 251 253 253 253 253 253 254 253 253 253 253 253 253 253 253 253 253 252 252 253 253 253 254 254 254 254 254 254 254 254 254 254 254 254 254 254 254 254 254 254 253 253 253
249 249 248 249 249 249 250 250 249 249 250 251 252 253 254 255 255 253 252 252 251 251 250 249 248 248 248 248 249 249 249 249 250 251 252 252 253 253 253 253 253 254 254 254 254 254 254 253 253 253 253 253 253 253 254 254 254 254 254 254 254 254 254 254 254 254 254 254 254 254 254 254 254 254
250 249 248 248 248 247 247 246 246 246 247 247 248 249 251 253 255 255 253 252 251 251 250 249 248 247 247 247 247 248 248 248 249 249 249 250 251 252 253 253 254 254 255 255 255 255 254 254 254 253 253 253 253 253 254 254 254 254 254 254 254 254 254 254 254 254 254 254 254 254 254 254 254 254
252 251 249 247 246 245 244 243 242 243 243 243 244 244 245 247 250 252 252 252 251 251 251 250 248 247 246 246 245 246 246 247 247 248 248 248 249 251 253 254 255 255 256 256 256 255 255 255 255 254 253 253 253 253 253 253 254 254 255 255 255 254 254 254 254 254 253 253 253 253 253 253 253 254
255 253 252 250 247 246 245 242 241 241 240 240 241 241 241 242 244 245 248 249 249 250 250 250 249 248 247 246 245 245 245 246 247 248 248 249 249 250 251 253 254 255 256 256 256 256 256 255 255 255 254 254 253 252 252 252 253 253 254 255 255 255 255 255 254 254 254 253 253 252 252 252 253 254
254 254 252 251 249 247 246 244 243 242 241 241 240 240 239 239 240 240 242 244 246 247 248 249 250 249 248 247 246 246 246 246 246 247 249 250 250 250 250 251 252 254 255 255 255 255 255 255 255 255 255 255 254 253 253 252 252 252 253 254 255 255 255 255 255 255 254 254 253 253 252 253 253 254
253 252 251 250 248 247 246 245 244 244 244 244 243 242 241 240 239 238 239 240 242 244 246 247 248 249 249 248 247 246 246 246 246 246 247 248 249 250 251 250 250 251 252 253 253 254 255 255 255 255 256 255 255 255 254 254 253 253 253 254 255 255 256 256 256 256 255 255 255 254 254 255 255 256
251 250 249 248 247 247 246 245 244 244 244 245 245 245 244 243 241 240 239 239 240 241 243 244 245 246 247 247 247 247 247 246 246 246 247 248 249 250 250 250 249 249 249 250 252 253 253 254 254 254 255 255 255 255 255 255 255 255 255 255 256 256 256 257 257 257 257 257 257 256 257 257 257 258
250 249 248 247 247 246 246 245 245 244 243 244 245 245 246 246 245 244 242 241 240 241 242 243 243 243 243 245 246 247 248 249 249 249 248 247 247 248 248 248 248 248 248 249 250 251 251 251 252 252 253 254 255 255 256 256 256 256 257 257 257 257 257 258 258 258 258 258 258 258 259 259 259 260
250 250 249 249 248 247 246 245 245 244 244 244 244 245 246 246 246 246 245 244 243 243 243 244 244 244 243 244 246 248 249 250 249 248 246 245 245 245 245 247 247 248 247 248 248 248 249 250 250 251 252 253 254 255 255 255 255 256 256 257 257 257 258 258 259 259 259 260 260 260 260 260 261 261
252 251 251 251 250 250 249 248 247 246 246 245 245 245 246 246 247 247 247 247 246 245 245 245 246 246 245 245 246 247 248 248 247 246 245 244 243 243 244 245 247 248 248 248 247 248 249 249 250 251 252 253 254 254 255 255 255 255 255 256 257 257 258 259 259 260 260 260 260 260 260 260 260 261
253 252 252 252 252 252 252 252 251 250 249 248 247 246 247 247 247 248 248 248 248 248 247 247 247 248 247 247 247 247 246 246 246 245 244 243 243 243 243 244 246 248 248 248 247 247 248 249 250 251 253 254 255 255 255 255 255 255 256 256 257 258 259 259 260 260 260 260 260 260 260 260 260 261
254 252 252 253 253 253 253 253 253 253 252 251 249 249 248 247 248 248 248 248 249 249 249 249 249 249 249 249 249 248 247 246 245 244 243 243 243 243 243 244 245 246 247 247 246 246 247 249 251 252 253 254 255 255 255 256 256 256 257 257 258 259 260 260 260 260 260 260 261 261 261 261 261 261
254 252 251 252 254 255 255 255 255 255 254 253 251 249 248 248 248 248 248 248 248 249 249 250 250 250 250 250 250 249 247 245 244 242 241 241 242 243 242 243 244 245 245 245 244 245 247 250 252 253 253 254 254 255 256 256 256 257 257 258 259 259 260 261 261 262 262 262 262 262 262 263 263 263
256 253 251 251 254 256 258 260 261 261 260 257 253 249 248 247 247 247 247 247 247 247 248 248 249 250 250 249 249 249 247 246 244 242 241 240 241 241 242 242 243 244 245 245 245 246 248 251 252 253 254 254 254 255 257 257 257 257 258 259 260 261 262 263 264 264 265 265 265 265 265 265 265 266
256 254 252 250 250 254 257 260 261 262 263 263 258 252 248 247 247 247 247 246 246 245 246 246 247 247 248 248 248 248 247 246 245 244 242 240 240 240 241 241 242 244 245 245 245 247 249 251 253 253 253 253 254 255 257 257 258 258 259 260 261 263 265 266 267 268 268 268 269 269 269 269 269 268
256 253 251 248 245 247 250 253 256 259 263 265 263 259 254 251 250 249 248 247 246 244 244 245 245 246 246 246 246 247 247 246 245 245 244 242 241 240 241 241 241 243 244 245 245 246 248 251 252 253 252 252 253 255 257 258 259 259 260 262 264 266 268 269 270 271 271 271 272 271 271 271 270 270
254 251 248 245 241 239 241 246 252 257 259 261 261 261 260 257 254 251 248 246 244 243 243 244 245 246 246 246 246 246 246 246 245 245 244 242 241 240 240 240 241 241 243 244 244 246 248 250 252 252 252 251 253 255 257 258 260 261 262 265 267 268 270 271 272 273 273 273 272 272 272 271 271 271
252 249 246 243 238 237 237 240 245 251 254 257 257 258 259 259 257 252 247 243 241 240 241 244 245 247 247 247 246 247 246 246 246 245 244 242 241 239 239 239 240 241 242 242 243 245 247 249 251 251 250 250 252 255 257 259 261 263 265 268 269 270 270 271 272 273 273 273 273 273 273 273 273 273
248 244 242 239 236 235 236 237 243 249 254 257 258 258 258 260 258 252 244 238 236 236 239 242 245 246 246 246 245 245 245 244 244 244 243 242 240 238 237 238 238 240 242 243 243 243 245 247 249 250 249 249 252 256 258 260 262 265 267 269 269 270 270 271 272 273 273 274 274 274 274 273 273 272
242 237 235 234 231 230 232 235 243 250 255 258 261 261 260 260 257 248 239 233 233 235 238 241 243 243 242 241 241 242 242 241 240 240 241 240 239 236 235 236 237 238 240 242 243 243 244 246 247 248 248 249 253 257 260 262 263 266 268 269 269 270 271 273 274 274 275 275 275 274 274 274 274 274
235 230 227 224 222 224 229 235 243 253 258 259 260 260 258 256 252 243 235 233 235 238 239 240 240 238 236 237 239 241 240 238 238 239 239 239 238 235 235 236 237 237 238 241 243 244 245 246 246 247 248 250 253 257 261 263 265 267 267 268 269 271 272 274 274 275 275 275 275 275 275 276 277 277
229 223 215 211 213 219 227 236 247 258 261 258 256 255 253 250 247 239 234 233 236 238 239 237 236 235 235 237 240 241 239 235 235 237 238 238 236 233 232 233 233 235 238 240 242 244 245 246 247 247 250 252 255 257 260 263 265 267 267 268 270 271 272 273 274 275 276 276 276 276 277 278 278 278
207 201 196 198 207 217 227 238 249 253 252 246 247 248 244 238 234 232 231 233 237 240 240 239 239 239 239 239 238 236 232 229 231 235 237 237 234 230 229 231 234 237 240 242 243 245 247 249 249 249 250 253 256 259 261 262 264 265 266 268 270 271 272 273 274 275 275 276 277 277 277 278 277 277
191 193 195 200 209 218 226 233 236 236 233 235 240 241 234 230 231 234 238 243 248 250 248 245 242 238 234 231 230 228 228 230 231 233 232 232 231 230 232 236 239 242 244 245 245 247 250 253 252 251 252 254 256 259 261 262 263 264 266 268 270 271 272 273 274 275 276 277 277 277 277 276 275 275
160 179 191 198 203 207 214 221 224 226 228 230 232 234 235 238 241 244 248 252 253 251 245 237 232 227 223 224 226 228 231 233 233 232 228 226 226 228 232 237 240 243 245 247 248 249 251 254 254 253 253 255 257 259 260 261 262 264 265 267 269 272 274 275 275 276 277 277 277 277 276 275 273 273
122 140 158 173 185 195 208 217 219 219 219 219 223 230 237 242 246 249 251 251 245 237 226 219 218 218 218 221 224 226 228 231 231 231 229 227 227 228 231 234 238 241 244 246 248 249 250 251 253 254 255 256 258 259 260 261 262 264 266 268 269 271 273 275 276 277 276 276 275 274 274 273 273 273
120 139 157 174 188 200 211 216 214 215 218 222 228 235 240 245 248 248 246 241 232 225 218 214 215 216 218 222 226 227 228 229 229 228 229 230 231 231 232 233 236 238 241 243 245 247 248 249 251 253 255 256 258 259 261 262 263 265 267 269 270 272 274 276 276 276 274 273 273 273 273 273 273 274
104 123 147 169 189 202 209 213 217 222 229 234 237 241 244 245 243 238 231 224 219 217 215 215 217 219 222 225 227 228 229 229 229 228 228 229 231 233 234 236 237 238 240 242 244 246 247 249 251 253 255 257 259 261 263 264 265 267 268 270 272 274 275 276 275 274 273 273 272 272 272 272 273 274
63 67 70 83 140 206 213 214 221 227 233 235 235 235 235 234 232 227 221 217 215 213 214 215 217 219 221 223 225 226 227 228 229 229 230 232 234 236 238 240 241 242 243 245 246 248 250 252 254 256 258 260 262 263 265 266 268 269 269 271 273 275 276 275 274 274 274 273 273 272 271 271 273 274
50 51 52 70 204 217 208 203 209 218 227 232 233 232 232 230 228 225 222 218 216 214 213 213 214 215 217 218 221 224 225 227 229 231 234 237 239 241 243 244 245 247 249 250 251 253 254 256 258 259 261 263 265 266 267 268 270 271 272 273 274 275 275 275 275 274 274 274 273 273 271 271 273 274
202 194 194 199 208 216 215 214 220 228 235 240 240 238 236 233 231 229 226 221 218 216 214 214 214 216 218 220 223 225 228 231 233 235 237 240 241 243 246 247 249 251 253 255 256 258 259 260 262 263 264 265 267 269 271 271 271 272 273 275 276 275 275 276 275 275 275 275 275 275 274 273 273 274
240 225 213 205 212 219 220 223 230 235 238 239 237 234 232 230 228 227 225 222 221 221 221 222 224 225 226 228 230 233 235 237 238 240 243 245 247 249 251 252 254 256 257 259 260 261 262 264 265 266 268 269 271 274 276 276 276 275 276 277 279 279 279 279 279 279 279 278 277 277 276 276 275 274
321 300 256 202 202 208 205 201 203 208 211 212 211 212 212 211 211 213 214 216 220 225 228 231 232 233 235 236 237 239 242 243 245 247 249 250 252 254 256 257 258 259 260 262 263 264 265 267 268 269 271 272 273 275 277 279 281 281 281 280 281 281 282 282 282 281 281 280 279 277 276 277 277 277
104 145 164 166 166 165 163 160 162 165 166 169 174 182 189 198 206 216 222 226 231 235 237 239 240 241 242 243 245 246 248 250 252 254 255 256 258 259 260 261 262 263 264 266 267 268 269 270 271 272 272 273 273 274 274 277 280 282 282 282 282 282 283 283 283 282 281 280 279 278 277 277 278 279
128 134 138 142 147 148 147 148 150 151 150 150 155 166 192 222 234 240 243 243 244 245 245 245 246 248 250 251 253 255 256 257 259 260 261 262 263 263 265 266 266 267 269 270 270 271 271 272 272 273 273 273 273 274 274 276 276 277 279 281 282 282 282 282 283 282 282 280 279 278 276 275 277 279
143 144 143 145 150 156 158 157 157 156 152 151 160 192 230 245 247 247 249 249 249 251 253 254 256 258 259 261 262 262 263 264 264 265 265 266 267 267 268 269 270 271 272 272 273 274 274 274 274 274 275 275 275 276 277 277 277 277 277 279 280 281 281 280 280 280 280 279 278 277 274 271 271 274
113 122 128 131 133 138 144 143 136 130 137 219 269 265 263 262 260 259 259 259 260 261 263 264 265 266 266 266 266 266 267 267 267 267 267 267 268 269 270 270 271 272 273 274 275 276 276 276 276 277 277 278 278 279 279 279 279 278 277 278 279 280 281 280 280 279 279 278 277 276 273 268 267 269
86 86 87 88 85 79 69 58 47 29 3 338 318 303 294 287 281 278 276 275 274 273 272 271 270 269 268 267 267 267 267 267 267 267 268 269 270 271 272 272 273 273 274 275 276 276 277 277 278 279 280 280 280 280 280 280 280 279 278 277 278 278 279 280 280 280 280 279 278 278 274 268 264 264
67 60 50 38 27 18 6 358 355 348 337 327 316 307 301 295 290 287 284 281 279 277 275 273 271 270 269 268 267 267 267 268 269 271 272 273 274 274 274 274 274 275 276 276 277 278 278 279 280 280 281 281 281 281 281 281 281 280 279 278 277 276 276 277 277 278 279 278 278 278 277 272 264 260
19 6 354 345 338 335 332 329 327 324 320 315 311 306 301 296 292 289 286 283 281 279 277 276 274 273 273 272 272 273 273 274 275 276 277 277 276 276 276 277 278 278 279 279 279 280 281 281 282 282 282 283 283 283 283 283 283 283 282 281 279 278 276 274 273 273 273 274 275 276 276 275 270 264
347 342 337 331 326 325 325 324 324 323 321 318 314 309 304 300 295 291 288 286 284 281 280 279 278 278 278 278 278 279 279 279 279 279 278 278 279 279 280 281 281 282 282 282 283 283 284 284 285 285 285 285 285 285 286 286 286 285 284 283 281 280 278 276 273 270 266 267 269 271 272 273 272 268